CST,Max TemperatureF,Mean TemperatureF,Min TemperatureF,Max Dew PointF,MeanDew PointF,Min DewpointF,Max Humidity, Mean Humidity, Min Humidity, Max Sea Level PressureIn, Mean Sea Level PressureIn, Min Sea Level PressureIn, Max VisibilityMiles, Mean VisibilityMiles, Min VisibilityMiles, Max Wind SpeedMPH, Mean Wind SpeedMPH, Max Gust SpeedMPH,PrecipitationIn, CloudCover, Events, WindDirDegrees
2014-2-1,67,56,44,55,49,37,100,88,66,30.16,30.12,30.07,10,7,0,8,4,,0.00,6,Fog,85
2014-2-2,76,64,53,66,58,53,100,93,53,30.15,30.09,30.01,10,6,0,16,5,18,0.00,3,Fog,128
2014-2-3,66,59,52,64,57,47,100,91,80,30.13,30.05,29.99,10,9,2,12,8,,0.06,8,Rain,305
2014-2-4,75,62,49,66,57,46,100,94,69,30.13,30.05,29.94,10,5,0,17,6,23,0.03,7,Fog-Rain,101
2014-2-5,69,54,37,68,55,30,100,85,57,30.25,30.02,29.90,10,8,1,20,13,26,0.32,5,Rain,276
2014-2-6,41,37,33,36,30,26,94,77,57,30.34,30.29,30.24,10,10,8,14,9,22,0.04,4,Rain,351
2014-2-7,57,44,31,39,34,28,94,72,46,30.35,30.27,30.21,10,10,9,12,6,17,0.00,1,Rain,13
2014-2-8,63,52,42,45,41,36,95,78,47,30.24,30.18,30.12,10,10,10,6,4,,0.03,4,Rain,25
2014-2-9,66,52,37,46,42,36,95,72,43,30.21,30.13,30.08,10,9,4,8,3,,0.00,0,,298
2014-2-10,68,55,42,55,48,41,100,90,59,30.15,30.10,30.04,10,5,0,13,3,,0.00,5,Fog-Rain,220
2014-2-11,51,46,42,50,46,41,100,94,93,30.16,30.10,30.05,10,9,4,15,8,22,0.16,8,Rain,35
2014-2-12,42,38,35,41,38,34,100,95,93,30.11,29.92,29.78,10,6,1,18,12,25,2.13,8,Rain-Thunderstorm,30
2014-2-13,55,45,35,36,33,28,94,78,34,30.00,29.89,29.82,10,10,10,18,9,28,0.01,5,Rain,298
2014-2-14,61,46,31,50,41,30,97,74,39,30.04,29.90,29.76,10,10,5,20,7,34,0.03,4,Rain,222
2014-2-15,55,46,35,48,35,26,94,67,32,30.18,30.05,29.83,10,10,10,14,10,31,0.01,2,,315
2014-2-16,67,49,31,44,35,29,93,62,28,30.22,30.17,30.13,10,10,10,7,2,,0.00,0,,230
2014-2-17,68,54,39,56,47,39,100,91,58,30.23,30.18,30.13,10,5,0,12,2,,0.00,5,Fog,172
2014-2-18,74,66,57,63,59,56,100,89,56,30.23,30.16,30.12,10,7,0,13,5,,0.00,7,Fog,195
2014-2-19,78,66,55,64,60,55,100,87,51,30.15,30.10,30.04,10,6,0,13,6,,0.07,5,Fog-Rain,201
2014-2-20,78,69,60,66,63,59,100,92,51,30.11,30.04,29.94,10,7,0,20,9,25,0.11,8,Fog-Rain,162
2014-2-21,68,58,48,68,55,30,100,80,27,30.10,29.96,29.88,10,7,0,21,12,32,0.02,6,Fog-Rain-Thunderstorm,237
2014-2-22,68,54,41,43,33,27,80,46,22,30.19,30.11,30.06,10,10,10,9,5,,0.00,0,,49
2014-2-23,61,54,47,61,54,40,100,91,67,30.11,30.03,29.97,10,8,0,13,5,,0.23,7,Fog-Rain,157
2014-2-24,72,64,55,61,56,45,100,83,44,30.14,30.06,30.00,10,7,0,10,5,18,0.00,5,Fog,318
2014-2-25,74,60,47,55,49,42,90,68,44,30.10,30.02,29.93,10,10,10,9,4,,0.00,4,,326
2014-2-26,57,48,38,54,45,28,100,88,62,29.99,29.91,29.85,10,8,2,16,7,26,0.48,7,Rain,350
2014-2-27,54,42,31,27,19,12,69,43,21,30.06,30.02,29.97,10,10,10,13,8,,0.00,0,,328
2014-2-28,61,44,28,36,25,20,83,48,22,30.15,30.10,30.04,10,10,10,9,4,,0.00,1,,79